Погода в Ласаро-Карденас

Мексика     17°57′06″N   102°11′37″W
В апреле 2022 года жителям России запретили посещать сайт meteo.paraplan.net по решению Генеральной прокуратуры. Аудитория сайта уменьшилась в 10 раз. Владельцы сайта не видят смысла в поддержке погодного сервера в таких условиях. Сайт будет закрыт в октябре.
темп.,
°C
ветер,
м/с
пор.,
м/с
влажн.,
%
обл.,
%
осадки,
мм/ч
давл.,
гПа
погр.,
м
25 сентября, вс
вс2501:00+24ссв229385 0.1 101197
04:00+24св239586 0.0 100991
07:00+24ссв229197 0.0 100978
10:00+27всв128259 0.0 1011271
13:00+29ююв227251 0.0 1010836
16:00+29ююз227520 0.1 1007674
19:00+27зюз228433 0.3 1007203
22:00+26сз118895 0.1 1009213
26 сентября, пн
пн2601:00+25св229299 0.5 100976
04:00+25св2393100 0.4 1008103
07:00+25св3392100 0.6 1008136
10:00+26в3491100 2.8 1010295
13:00+27вюв2284100 5.4 1010524
16:00+28ююв2281100 0.6 1007662
19:00+26в1188100 1.3 1007173
22:00+25св229164 0.1 100999
27 сентября, вт
вт2701:00+25всв239198 1.1 1010124
04:00+25всв1292100 3.9 100870
07:00+24ссв2393100 9.9 1009109
10:00+26всв228781 1.3 1011156
13:00+27юв228190 4.2 1011420
16:00+28ююв2374100 1.8 1008661
19:00+27ююз1182100 1.9 1009245
22:00+26всв118496 0.0 1011123
28 сентября, ср
ср2801:00+25с228897 0.1 101285
04:00+25св118656 0.0 101072
07:00+24ссв118552 0.1 101150
10:00+27ссв11785 0.1 1013250
13:00+29ююз217314 0.1 1012759
16:00+28юз337733 0.1 1010688
19:00+27юз248440 0.5 1011357
22:00+26юз128416 0.5 1013279
29 сентября, чт
чт2901:00+25ссв11889 0.6 101364
04:00+24св229320 0.8 101268
07:00+24св229251 3.6 101398
10:00+26св228719 0.1 1014233
13:00+29ююв22705 0.1 1013744
16:00+28ююв33705 0.1 1011729
19:00+27юв22815 0.1 1011269
22:00+25св22859 0.0 1012142